Sturgeon Bay, WI

3:49 PM CST on December 08, 2019 (GMT -0600)
Door County Cherryland

Weather History for KSUE - November, 2019

Change the Weather History Date:

Tuesday, November 12, 2019

  Actual Average Record
Temperature  
Mean Temperature 14 °F -  
Max Temperature 19 °F 41 °F 64 °F (1930)
Min Temperature 10 °F 28 °F 10 °F (2019)
Degree Days  
Heating Degree Days 50    
Moisture  
Dew Point 5 °F    
Average Humidity 67    
Maximum Humidity 79    
Minimum Humidity 52    
Precipitation  
Precipitation 0.00 in - - ()
Sea Level Pressure  
Sea Level Pressure 30.39 in    
Wind  
Wind Speed 15 mph (WNW)    
Max Wind Speed 22 mph    
Max Gust Speed 29 mph    
Visibility 10 miles    
Events      
Averages and records for this station are not official NWS values.
T = Trace of Precipitation, MM = Missing Value Source: NWS Daily Summary

Daily Weather History Graph

Daily Weather History Graph

Search for Another Location

Airport or City:

Astronomy

Nov. 12, 2019 Rise Set
Actual Time 6:42 AM CST 4:24 PM CST
Civil Twilight 6:11 AM CST 4:55 PM CST
Nautical Twilight 5:35 AM CST 5:31 PM CST
Astronomical Twilight 5:01 AM CST 6:05 PM CST
Moon 4:52 PM CST (11/12) 6:31 AM CST (11/12)
Length of Visible Light 10h 44m
Length of Day
9h 41m
Full, 100% of the Moon is Illuminated
Nov 12
Full
Nov 19
Last Quarter
Nov 26
New
Dec 4
First Quarter
Dec 11
Full

Hourly Weather History & Observations

Time (CST) Temp. Windchill Dew Point Humidity Pressure Visibility Wind Dir Wind Speed Gust Speed Precip Events Conditions
12:38 AM 12.2 °F -6.7 °F 5.0 °F 73% 30.35 in 10.0 mi NNW 21.9 mph 28.8 mph N/A   Mostly Cloudy
12:56 AM 12.9 °F -3.9 °F 5.0 °F 71% 30.39 in 10.0 mi NNW 17.3 mph 26.5 mph N/A   Mostly Cloudy
1:14 AM 12.2 °F -4.8 °F 6.8 °F 79% 30.35 in 10.0 mi NW 17.3 mph 27.6 mph N/A   Scattered Clouds
1:56 AM 12.9 °F -2.8 °F 6.1 °F 74% 30.40 in 10.0 mi NW 15.0 mph 26.5 mph N/A   Overcast
2:56 AM 12.0 °F -6.0 °F 3.9 °F 70% 30.40 in 10.0 mi NNW 19.6 mph 25.3 mph N/A   Scattered Clouds
3:56 AM 12.9 °F -4.4 °F 3.9 °F 67% 30.40 in 10.0 mi NNW 18.4 mph 24.2 mph N/A   Mostly Cloudy
4:17 AM 12.2 °F -3.7 °F 3.2 °F 67% 30.37 in 10.0 mi NNW 15.0 mph 25.3 mph N/A   Scattered Clouds
4:56 AM 12.0 °F -5.6 °F 3.9 °F 70% 30.41 in 10.0 mi NNW 18.4 mph 28.8 mph N/A   Mostly Cloudy
5:56 AM 12.0 °F -4.5 °F 3.9 °F 70% 30.43 in 10.0 mi NW 16.1 mph - N/A   Overcast
6:56 AM 10.9 °F -4.7 °F 5.0 °F 77% 30.44 in 10.0 mi WNW 13.8 mph 21.9 mph N/A   Overcast
7:56 AM 10.9 °F -5.9 °F 5.0 °F 77% 30.45 in 10.0 mi NW 16.1 mph - N/A   Overcast
8:56 AM 12.9 °F -2.8 °F 6.1 °F 74% 30.45 in 10.0 mi NW 15.0 mph - N/A   Overcast
9:56 AM 14.0 °F -2.0 °F 6.1 °F 71% 30.44 in 10.0 mi NNW 16.1 mph 21.9 mph N/A   Mostly Cloudy
10:56 AM 16.0 °F 0.6 °F 5.0 °F 62% 30.44 in 10.0 mi NW 16.1 mph 23.0 mph N/A   Mostly Cloudy
11:47 AM 15.8 °F 0.9 °F 3.2 °F 58% 30.39 in 10.0 mi WNW 15.0 mph - N/A   Scattered Clouds
11:56 AM 17.1 °F 3.6 °F 5.0 °F 59% 30.43 in 10.0 mi NW 12.7 mph - N/A   Mostly Cloudy
12:56 PM 19.0 °F 6.1 °F 5.0 °F 54% 30.40 in 10.0 mi West 12.7 mph - N/A   Mostly Cloudy
1:56 PM 19.0 °F 7.5 °F 5.0 °F 54% 30.40 in 10.0 mi WNW 10.4 mph 18.4 mph N/A   Partly Cloudy
2:56 PM 19.9 °F 10.1 °F 5.0 °F 52% 30.39 in 10.0 mi NW 8.1 mph - N/A   Partly Cloudy
3:56 PM 19.0 °F 9.0 °F 6.1 °F 57% 30.39 in 10.0 mi West 8.1 mph - N/A   Clear
4:56 PM 18.0 °F 8.7 °F 5.0 °F 57% 30.38 in 10.0 mi SW 6.9 mph - N/A   Clear
5:56 PM 16.0 °F 7.4 °F 6.1 °F 65% 30.38 in 10.0 mi South 5.8 mph - N/A   Clear
6:56 PM 15.1 °F 4.2 °F 6.1 °F 68% 30.38 in 10.0 mi South 8.1 mph - N/A   Clear
7:56 PM 14.0 °F 2.9 °F 5.0 °F 67% 30.36 in 10.0 mi South 8.1 mph - N/A   Clear
8:56 PM 12.9 °F 1.6 °F 5.0 °F 71% 30.35 in 10.0 mi SSW 8.1 mph - N/A   Clear
9:56 PM 12.9 °F 1.6 °F 3.9 °F 67% 30.34 in 10.0 mi SSW 8.1 mph - N/A   Clear
10:56 PM 12.0 °F 1.5 °F 5.0 °F 73% 30.33 in 10.0 mi South 6.9 mph - N/A   Clear
11:56 PM 12.9 °F 2.6 °F 5.0 °F 71% 30.33 in 10.0 mi SSW 6.9 mph - N/A   Clear